Погода в Пуэрто Хименес

Коста-Рика     8°31′59″N   83°18′06″W
темп.,
°C
ветер,
м/с
пор.,
м/с
влажн.,
%
обл.,
%
осадки,
мм/ч
давл.,
гПа
погр.,
м
21 июня, пн
пн2100:00+25зсз2391100 0.3 1011139
03:00+25с229369 1.2 1011126
06:00+24ссз129223 1.9 1012100
09:00+27зюз018235 2.1 1013385
12:00+28ююз3378100 3.8 1012632
15:00+25юв2289100 7.6 101180
18:00+24юв2292100 12.3 1012128
21:00+24юв0092100 0.4 1013109
22 июня, вт
вт2200:00+24з129399 0.4 1013188
03:00+23ссз229447 0.1 1011148
06:00+24ссз119375 0.1 1012116
09:00+27св008157 0.0 1014482
12:00+28ю327526 0.5 1012695
15:00+28ю3376100 1.3 1010776
18:00+25ююз2288100 6.8 101294
21:00+25з1187100 3.5 101324
23 июня, ср
ср2300:00+24сз129098 4.8 101390
03:00+24ссз2393100 0.1 1012133
06:00+24сз1191100 0.3 1013111
09:00+27зсз118170 0.1 1014436
12:00+28ююз327684 0.6 1012721
15:00+28юз3378100 1.5 1010576
18:00+24в5695100 16.9 1012266
21:00+23зсз1293100 7.9 1012119
24 июня, чт
чт2400:00+24сз1189100 7.9 101298
03:00+24с1188100 0.0 101194
06:00+24св118928 0.0 101287
09:00+27всв117415 0.0 1013427
12:00+29ююз226694 0.0 1011881
15:00+28ююз3470100 0.1 1009518
18:00+26зюз238194 1.0 1011288
21:00+25сз1187100 3.1 101353
25 июня, пт
пт2500:00+24ссз1188100 5.6 101226
03:00+24сз128875 2.4 101067
06:00+24с118959 2.6 101195
09:00+27ссз1177100 0.6 1012471
12:00+28ю2170100 2.5 1011775
15:00+28ююз3373100 0.7 1009737
18:00+25ююз1184100 4.0 101150
21:00+24ссз1288100 3.9 101244